This demonstration page uses our WeatherBlox Daily Observations layout. Learn more.

Left ArrowRight Arrow

Hourly Observations for April 16, 2023

Temp ( °F °C ) Dew Point ( °F °C ) Humidity (%) Winds ( mph kmh ) Pressure ( in mb ) Visibility ( mi km ) Precip ( " mm )
12:15 am 00:15 Clear 66 19 54 12 64 64 S 9 15 29.78 1008 10 16 0.00 0.00
12:35 am 00:35 Clear 66 19 54 12 64 64 S 10 17 29.77 1008 10 16 0.00 0.00
12:55 am 00:55 Clear 66 19 54 12 64 64 S 12 19 29.77 1008 10 16 0.00 0.00
1:15 am 01:15 Mostly Cloudy 68 20 54 12 60 60 S 14 22 29.77 1008 10 16 0.00 0.00
1:35 am 01:35 Mostly Cloudy 66 19 57 14 73 73 S 12 19 29.76 1008 10 16 0.00 0.00
1:55 am 01:55 Cloudy 63 17 57 14 82 82 S 7 11 29.77 1008 10 16 0.00 0.00
2:15 am 02:15 Cloudy 63 17 57 14 82 82 SSW 7 11 29.76 1008 10 16 0.00 0.00
2:35 am 02:35 Cloudy 64 18 55 13 73 73 S 7 11 29.75 1008 10 16 0.00 0.00
2:55 am 02:55 Mostly Cloudy 63 17 55 13 77 77 SW 9 15 29.75 1007 10 16 0.00 0.00
3:15 am 03:15 Partly Cloudy 61 16 54 12 77 77 W 13 20 29.76 1008 10 16 0.00 0.00
3:35 am 03:35 Clear 59 15 54 12 82 82 W 10 17 29.76 1008 10 16 0.00 0.00
3:55 am 03:55 Partly Cloudy 57 14 54 12 88 88 SW 5 7 29.75 1007 10 16 0.00 0.00
4:15 am 04:15 Mostly Cloudy 57 14 54 12 88 88 S 3 6 29.74 1007 10 16 0.00 0.00
4:35 am 04:35 Cloudy 57 14 54 12 88 88 S 6 9 29.73 1007 10 16 0.00 0.00
4:55 am 04:55 Mostly Cloudy 57 14 54 12 88 88 SSE 7 11 29.72 1006 10 16 0.00 0.00
5:15 am 05:15 Partly Cloudy 57 14 54 12 88 88 SE 6 9 29.70 1006 10 16 0.00 0.00
5:35 am 05:35 Partly Cloudy 57 14 54 12 88 88 SE 5 7 29.69 1005 10 16 0.00 0.00
5:55 am 05:55 Mostly Cloudy 57 14 54 12 88 88 SE 6 9 29.67 1005 10 16 0.00 0.00
6:15 am 06:15 Partly Cloudy 55 13 52 11 88 88 Calm 29.68 1005 10 16 0.00 0.00
6:35 am 06:35 Partly Cloudy 54 12 50 10 88 88 S 5 7 29.69 1005 10 16 0.00 0.00
6:55 am 06:55 Partly Cloudy 54 12 54 12 100 100 SSW 6 9 29.69 1005 10 16 0.00 0.00
7:15 am 07:15 Partly Cloudy 54 12 54 12 100 100 S 6 9 29.69 1005 10 16 0.00 0.00
7:35 am 07:35 Partly Cloudy 55 13 54 12 94 94 S 6 9 29.68 1005 10 16 0.00 0.00
7:55 am 07:55 Partly Cloudy 57 14 54 12 88 88 S 8 13 29.67 1005 10 16 0.00 0.00
8:15 am 08:15 Mostly Cloudy 61 16 55 13 82 82 S 9 15 29.66 1004 10 16 0.00 0.00
8:35 am 08:35 Cloudy 59 15 54 12 82 82 S 9 15 29.66 1005 10 16 0.00 0.00
8:55 am 08:55 Cloudy 59 15 54 12 82 82 S 12 19 29.66 1005 10 16 0.00 0.00
9:15 am 09:15 Cloudy 59 15 54 12 82 82 S 10 17 29.66 1005 10 16 0.00 0.00
9:35 am 09:35 Cloudy 59 15 55 13 88 88 S 9 15 29.65 1004 3 5 0.00 0.00
9:55 am 09:55 Cloudy 57 14 57 14 100 100 S 14 22 29.66 1004 7 11 0.00 0.00
10:15 am 10:15 Cloudy 57 14 57 14 100 100 S 15 24 29.66 1004 3 5 0.00 0.00
10:35 am 10:35 Cloudy 54 12 54 12 100 100 WSW 30 48 29.69 1006 3 5 0.00 0.00
10:55 am 10:55 Cloudy 48 9 48 9 100 100 WSW 10 17 29.71 1006 4 6 0.00 0.00
11:15 am 11:15 Cloudy 50 10 50 10 100 100 WSW 17 28 29.71 1006 5 8 0.00 0.00
11:35 am 11:35 Cloudy 48 9 48 9 100 100 SW 24 39 29.73 1007 10 16 0.00 0.00
11:55 am 11:55 Cloudy 48 9 48 9 100 100 WSW 22 35 29.75 1007 10 16 0.00 0.00
12:15 pm 12:15 Cloudy 48 9 48 9 100 100 WSW 21 33 29.75 1007 10 16 0.00 0.00
12:35 pm 12:35 Cloudy 48 9 48 9 100 100 WSW 21 33 29.75 1007 10 16 0.00 0.00
12:55 pm 12:55 Cloudy 50 10 48 9 93 93 WSW 24 39 29.74 1007 10 16 0.00 0.00
1:15 pm 13:15 Cloudy 50 10 46 8 87 87 WSW 18 30 29.75 1007 4 6 0.00 0.00
1:35 pm 13:35 Cloudy 46 8 46 8 100 100 WSW 20 31 29.76 1008 4 6 0.00 0.00
1:55 pm 13:55 Cloudy 50 10 45 7 82 82 SW 24 39 29.76 1008 10 16 0.00 0.00
2:15 pm 14:15 Cloudy 46 8 43 6 87 87 W 20 31 29.78 1008 10 16 0.00 0.00
2:35 pm 14:35 Cloudy 46 8 41 5 81 81 WSW 21 33 29.79 1009 10 16 0.00 0.00
2:55 pm 14:55 Cloudy 46 8 41 5 81 81 WSW 21 33 29.80 1009 10 16 0.00 0.00
3:15 pm 15:15 Cloudy 46 8 41 5 81 81 WSW 17 28 29.80 1009 10 16 0.00 0.00
3:35 pm 15:35 Cloudy 45 7 41 5 87 87 WSW 22 35 29.81 1010 5 8 0.00 0.00
3:55 pm 15:55 Cloudy 46 8 43 6 87 87 WSW 17 28 29.81 1009 10 16 0.00 0.00
4:15 pm 16:15 Cloudy 48 9 41 5 76 76 SW 20 31 29.79 1009 10 16 0.00 0.00
4:35 pm 16:35 Cloudy 48 9 41 5 76 76 WSW 20 31 29.79 1009 10 16 0.00 0.00
4:55 pm 16:55 Cloudy 46 8 41 5 81 81 WSW 22 35 29.81 1009 7 11 0.00 0.00
5:15 pm 17:15 Cloudy 50 10 43 6 76 76 WSW 18 30 29.80 1009 10 16 0.00 0.00
5:35 pm 17:35 Cloudy 46 8 41 5 81 81 WSW 18 30 29.82 1010 5 8 0.00 0.00
5:55 pm 17:55 Cloudy 46 8 43 6 87 87 WSW 18 30 29.82 1010 10 16 0.00 0.00
6:15 pm 18:15 Cloudy 46 8 41 5 81 81 SW 17 28 29.83 1010 10 16 0.00 0.00
6:35 pm 18:35 Cloudy 45 7 41 5 87 87 WSW 18 30 29.84 1011 10 16 0.00 0.00
6:55 pm 18:55 Cloudy 43 6 41 5 93 93 SW 21 33 29.84 1011 10 16 0.00 0.00
7:15 pm 19:15 Cloudy 43 6 41 5 93 93 SW 15 24 29.84 1011 7 11 0.00 0.00
7:35 pm 19:35 Cloudy 43 6 37 3 81 81 WSW 20 31 29.85 1011 10 16 0.00 0.00
7:55 pm 19:55 Cloudy 43 6 39 4 87 87 SW 14 22 29.85 1011 10 16 0.00 0.00
8:15 pm 20:15 Cloudy 43 6 37 3 81 81 SW 14 22 29.84 1011 10 16 0.00 0.00
8:35 pm 20:35 Cloudy 41 5 39 4 93 93 WSW 15 24 29.85 1011 10 16 0.00 0.00
8:55 pm 20:55 Cloudy 41 5 39 4 93 93 SW 21 33 29.85 1011 10 16 0.00 0.00
9:15 pm 21:15 Cloudy 41 5 37 3 87 87 SW 18 30 29.85 1011 10 16 0.00 0.00
9:35 pm 21:35 Partly Cloudy 41 5 36 2 81 81 SW 14 22 29.84 1010 10 16 0.00 0.00
9:55 pm 21:55 Mostly Cloudy 41 5 36 2 81 81 SW 17 28 29.85 1011 10 16 0.00 0.00
10:15 pm 22:15 Cloudy 41 5 36 2 81 81 WSW 17 28 29.84 1010 10 16 0.00 0.00
10:35 pm 22:35 Cloudy 41 5 37 3 87 87 SW 14 22 29.83 1010 10 16 0.00 0.00
10:55 pm 22:55 Cloudy 41 5 37 3 87 87 SW 16 26 29.82 1010 10 16 0.00 0.00
11:15 pm 23:15 Cloudy 39 4 36 2 87 87 SW 22 35 29.82 1010 10 16 0.00 0.00
11:35 pm 23:35 Cloudy 39 4 37 3 93 93 WSW 21 33 29.82 1010 10 16 0.00 0.00
11:55 pm 23:55 Cloudy 39 4 37 3 93 93 SW 13 20 29.81 1009 10 16 0.00 0.00

Powered by Vaisala Xweather